692  
ASUS45 KCYS 251210  
RWRWY  
 
WYOMING REGIONAL WEATHER ROUNDUP  
NATIONAL WEATHER SERVICE CHEYENNE WY  
600 AM MDT TUE JUL 25 2017  
 
NOTE: "FAIR" INDICATES FEW OR NO CLOUDS BELOW 12,000 FEET  
WITH NO SIGNIFICANT WEATHER AND/OR S TO VISIBILITY
.  
 
WYZ001-251300-  
YELLOWSTONE NATIONAL PARK  
 
CITY SKY/WX TMP DP RH WIND PRES REMARKS
 
LK YELLOWSTONE N/A 43 42 97 CALM 30.31R  
6HR MIN TEMP: 42; 6HR MAX TEMP: 46;  
 
W YELLOWSTONE NOT AVBL  
 

 
WYZ002>013-054>058-071-098>099-251300-  
NORTHERN WYOMING  
 
CITY SKY/WX TMP DP RH WIND PRES REMARKS
 
JACKSON FAIR 54 43 66 CALM 30.21R  
CODY FAIR 67 41 38 CALM 30.10R  
GREYBULL FAIR 66 32 28 S5 29.98R  
6HR MIN TEMP: 65; 6HR MAX TEMP: 83;  
 
WORLAND FAIR 58 40 51 S5 30.00R  
6HR MIN TEMP: 57; 6HR MAX TEMP: 72;  
 
SHERIDAN FAIR 61 50 67 S5 30.00R  
6HR MIN TEMP: 59; 6HR MAX TEMP: 70;  
 
BUFFALO FAIR 64 46 52 W5 30.07R  
6HR MIN TEMP: 63; 6HR MAX TEMP: 75;  
 
GILLETTE FAIR 59 52 77 S5 29.99R  
6HR MIN TEMP: 58; 6HR MAX TEMP: 74;  
 
HULETT FAIR 66 54 63 CALM 29.99R  
NEWCASTLE FAIR 68 43 40 NE7 29.95S  
 

 
WYZ014>020-022>026-101>103-251300-  
CENTRAL WYOMING  
 
CITY SKY/WX TMP DP RH WIND PRES REMARKS
 
BIG PINEY MOCLDY 58 43 57 E5 30.21R  
6HR MIN TEMP: 54; 6HR MAX TEMP: 61;  
 
PINEDALE PTSUNNY 55 43 62 W8 30.23R  
DUBOIS CLOUDY 59 34 38 W7 30.22R  
LANDER FAIR 64 40 41 W5 30.09R  
6HR MIN TEMP: 62; 6HR MAX TEMP: 74;  
 
RIVERTON FAIR 64 37 36 S6 30.10R  
6HR MIN TEMP: 64; 6HR MAX TEMP: 74;  
 
CASPER FAIR 62 44 51 W6 30.10R  
6HR MIN TEMP: 56; 6HR MAX TEMP: 75;  
 
DOUGLAS FAIR 66 44 45 NW10 30.04R  
6HR MIN TEMP: 60; 6HR MAX TEMP: 71;  
 

 
WYZ021-027>030-104>119-251300-  
SOUTHERN WYOMING  
 
CITY SKY/WX TMP DP RH WIND PRES REMARKS
 
EVANSTON LGT RAIN 57 55 93 SW12 30.25S  
6HR MIN TEMP: 57; 6HR MAX TEMP: 71; 6HR PCP: TRACE;  
 
KEMMERER N/A 61 46 59 CALM 30.26R  
FORT BRIDGER CLOUDY 64 50 60 W12 30.28R  
ROCK SPRINGS MOCLDY 66 47 50 S8 30.24R  
6HR MIN TEMP: 65; 6HR MAX TEMP: 72;  
 
RAWLINS FAIR 66 50 56 SW23G33 30.20S  
6HR MIN TEMP: 63; 6HR MAX TEMP: 71;  
 
SARATOGA FAIR 64 46 52 SW8 30.24R  
LARAMIE FAIR 56 42 59 SE8 30.22R  
6HR MIN TEMP: 56; 6HR MAX TEMP: 62;  
 
CHEYENNE FAIR 64 42 44 W10 30.11S  
6HR MIN TEMP: 60; 6HR MAX TEMP: 66;  
 
TORRINGTON FAIR 65 52 62 E5 29.94S  
6HR MIN TEMP: 65; 6HR MAX TEMP: 77;  
 
PINE BLUFFS FAIR 59 50 72 W5 30.05S  
 

 
 
 
CLICK HERE TO GO TO PREVIOUS BULLETINS.

The Nexlab WY Page Main Text Page